Time,TemperatureF,DewpointF,PressureIn,WindDirection,WindDirectionDegrees,WindSpeedMPH,WindSpeedGustMPH,Humidity,HourlyPrecipIn,Conditions,Clouds,dailyrainin,SolarRadiationWatts/m^2,SoftwareType,DateUTC
2013-01-26 00:03:00,58.1,56.9,29.44,West,259,7.3,8.7,95,-99.99,,,0.00,0,rob ver 1A,2013-01-26 07:03:00,
2013-01-26 00:08:00,58.0,56.9,29.44,West,273,6.3,7.8,96,-99.99,,,0.01,0,rob ver 1A,2013-01-26 07:08:00,
2013-01-26 00:13:00,57.8,56.9,29.44,West,269,6.6,8.1,96,-99.99,,,0.00,0,rob ver 1A,2013-01-26 07:13:00,
2013-01-26 00:18:00,57.7,56.8,29.44,West,264,7.7,8.8,96,-99.99,,,0.00,0,rob ver 1A,2013-01-26 07:18:00,
2013-01-26 00:23:00,57.6,56.7,29.44,West,266,7.6,9.8,96,-99.99,,,0.00,0,rob ver 1A,2013-01-26 07:23:00,
2013-01-26 00:28:00,57.5,56.7,29.44,West,274,7.0,8.8,97,-99.99,,,0.00,0,rob ver 1A,2013-01-26 07:28:00,
2013-01-26 00:33:00,57.5,56.7,29.44,West,269,7.6,8.7,97,-99.99,,,0.01,0,rob ver 1A,2013-01-26 07:33:00,
2013-01-26 00:38:00,57.4,56.6,29.44,West,272,7.8,9.1,97,-99.99,,,0.00,0,rob ver 1A,2013-01-26 07:38:00,
2013-01-26 00:43:00,57.3,56.5,29.44,West,278,8.7,10.4,97,-99.99,,,0.07,0,rob ver 1B,2013-01-26 07:43:00,
2013-01-26 00:48:00,57.2,56.5,29.44,West,273,9.6,11.5,97,-99.99,,,0.00,0,rob ver 1A,2013-01-26 07:48:00,
2013-01-26 00:53:00,57.2,56.5,29.44,West,275,8.7,10.6,97,-99.99,,,0.00,0,rob ver 1A,2013-01-26 07:53:00,
2013-01-26 00:58:00,57.2,56.5,29.44,West,271,8.1,10.3,97,-99.99,,,0.00,0,rob ver 1A,2013-01-26 07:58:00,
2013-01-26 01:03:00,57.2,56.6,29.44,West,273,8.2,10.1,97,-99.99,,,0.00,0,rob ver 1A,2013-01-26 08:03:00,
2013-01-26 01:08:00,57.3,56.6,29.44,West,277,8.1,9.6,97,-99.99,,,0.00,0,rob ver 1A,2013-01-26 08:08:00,
2013-01-26 01:13:00,57.4,56.7,29.44,West,279,7.5,9.2,97,-99.99,,,0.00,0,rob ver 1A,2013-01-26 08:13:00,
2013-01-26 01:18:00,57.4,56.8,29.44,WNW,284,7.1,8.2,97,-99.99,,,0.00,0,rob ver 1A,2013-01-26 08:18:00,
2013-01-26 01:23:00,57.4,56.8,29.44,WNW,289,8.0,9.4,97,-99.99,,,0.00,0,rob ver 1A,2013-01-26 08:23:00,
2013-01-26 01:28:00,57.4,56.8,29.44,WNW,299,7.8,8.9,97,-99.99,,,0.00,0,rob ver 1A,2013-01-26 08:28:00,
2013-01-26 01:33:00,57.4,56.7,29.44,WNW,289,8.0,9.3,97,-99.99,,,0.00,0,rob ver 1A,2013-01-26 08:33:00,
2013-01-26 01:38:00,57.4,56.8,29.44,WNW,289,7.5,8.6,97,-99.99,,,0.00,0,rob ver 1A,2013-01-26 08:38:00,
2013-01-26 01:43:00,57.4,56.8,29.44,WNW,288,8.1,9.3,97,-99.99,,,0.00,0,rob ver 1A,2013-01-26 08:43:00,
2013-01-26 01:48:00,57.4,56.7,29.44,WNW,283,8.3,9.9,97,-99.99,,,0.00,0,rob ver 1A,2013-01-26 08:48:00,
2013-01-26 01:53:00,57.3,56.7,29.44,WNW,283,7.8,9.7,97,-99.99,,,0.00,0,rob ver 1A,2013-01-26 08:53:00,
2013-01-26 01:58:00,57.2,56.6,29.44,WNW,285,8.0,9.7,97,-99.99,,,0.00,0,rob ver 1A,2013-01-26 08:58:00,
2013-01-26 02:03:00,57.2,56.6,29.44,WNW,287,7.6,8.5,97,-99.99,,,0.00,0,rob ver 1A,2013-01-26 09:03:00,
2013-01-26 02:08:00,57.1,56.5,29.41,WNW,293,7.6,8.7,97,-99.99,,,0.00,0,rob ver 1A,2013-01-26 09:08:00,
2013-01-26 02:13:00,57.1,56.6,29.41,WNW,299,8.4,10.0,97,-99.99,,,0.00,0,rob ver 1A,2013-01-26 09:13:00,
2013-01-26 02:18:00,57.2,56.6,29.41,WNW,302,7.7,9.5,97,-99.99,,,0.00,0,rob ver 1A,2013-01-26 09:18:00,
2013-01-26 02:23:00,57.1,56.5,29.41,WNW,298,8.3,9.2,97,-99.99,,,0.00,0,rob ver 1A,2013-01-26 09:23:00,
2013-01-26 02:28:00,57.0,56.4,29.41,WNW,292,7.6,9.4,97,-99.99,,,0.00,0,rob ver 1A,2013-01-26 09:28:00,
2013-01-26 02:33:00,57.1,56.4,29.41,WNW,290,8.7,10.5,97,-99.99,,,0.00,0,rob ver 1A,2013-01-26 09:33:00,
2013-01-26 02:38:00,57.1,56.5,29.41,WNW,297,6.7,7.9,97,-99.99,,,0.00,0,rob ver 1A,2013-01-26 09:38:00,
2013-01-26 02:44:00,57.1,56.5,29.41,NW,305,7.9,9.7,97,-99.99,,,0.00,0,rob ver 1A,2013-01-26 09:44:00,
2013-01-26 02:49:00,57.1,56.4,29.41,WNW,299,8.7,10.5,97,-99.99,,,0.00,0,rob ver 1A,2013-01-26 09:49:00,
2013-01-26 02:54:00,57.1,56.5,29.41,WNW,301,8.4,9.9,97,-99.99,,,0.00,0,rob ver 1A,2013-01-26 09:54:00,
2013-01-26 02:59:00,57.1,56.5,29.41,NW,304,8.1,9.6,97,-99.99,,,0.00,0,rob ver 1A,2013-01-26 09:59:00,
2013-01-26 03:04:00,57.1,56.5,29.41,WNW,302,8.4,9.9,97,-99.99,,,0.00,0,rob ver 1A,2013-01-26 10:04:00,
2013-01-26 03:09:00,57.1,56.5,29.41,WNW,291,6.6,7.8,97,-99.99,,,0.00,0,rob ver 1A,2013-01-26 10:09:00,
2013-01-26 03:14:00,57.1,56.5,29.41,WNW,283,7.4,8.5,97,-99.99,,,0.00,0,rob ver 1A,2013-01-26 10:14:00,
2013-01-26 03:19:00,57.1,56.5,29.41,WNW,282,7.3,8.3,97,-99.99,,,0.00,0,rob ver 1A,2013-01-26 10:19:00,
2013-01-26 03:24:00,57.1,56.4,29.41,WNW,282,7.8,10.2,97,-99.99,,,0.10,0,rob ver 1B,2013-01-26 10:24:00,
2013-01-26 03:29:00,56.9,56.2,29.41,West,281,8.3,9.8,97,-99.99,,,0.00,0,rob ver 1A,2013-01-26 10:29:00,
2013-01-26 03:34:00,57.0,56.3,29.38,West,280,8.2,10.2,97,-99.99,,,0.00,0,rob ver 1A,2013-01-26 10:34:00,
2013-01-26 03:39:00,56.9,56.2,29.38,West,276,9.2,11.3,97,-99.99,,,0.00,0,rob ver 1A,2013-01-26 10:39:00,
2013-01-26 03:44:00,57.0,56.2,29.38,West,271,8.0,9.1,97,-99.99,,,0.00,0,rob ver 1A,2013-01-26 10:44:00,
2013-01-26 03:49:00,57.0,56.3,29.38,West,272,8.4,10.1,97,-99.99,,,0.00,0,rob ver 1A,2013-01-26 10:49:00,
2013-01-26 03:54:00,57.0,56.3,29.38,West,270,7.7,9.0,97,-99.99,,,0.00,0,rob ver 1A,2013-01-26 10:54:00,
2013-01-26 03:59:00,57.0,56.3,29.38,West,265,7.2,8.7,97,-99.99,,,0.00,0,rob ver 1A,2013-01-26 10:59:00,
2013-01-26 04:04:00,57.0,56.3,29.38,West,268,8.5,9.8,97,-99.99,,,0.00,0,rob ver 1A,2013-01-26 11:04:00,
2013-01-26 04:09:00,56.9,56.2,29.38,West,271,8.3,10.0,97,-99.99,,,0.00,0,rob ver 1A,2013-01-26 11:09:00,
2013-01-26 04:14:00,57.0,56.3,29.38,West,273,6.2,7.3,97,-99.99,,,0.00,0,rob ver 1A,2013-01-26 11:14:00,
2013-01-26 04:19:00,56.9,56.2,29.38,West,277,6.4,8.3,97,-99.99,,,0.00,0,rob ver 1A,2013-01-26 11:19:00,
2013-01-26 04:24:00,56.9,56.1,29.38,West,279,8.0,9.4,97,-99.99,,,0.00,0,rob ver 1A,2013-01-26 11:24:00,
2013-01-26 04:29:00,56.9,56.2,29.38,West,275,6.9,7.8,97,-99.99,,,0.00,0,rob ver 1A,2013-01-26 11:29:00,
2013-01-26 04:34:00,56.9,56.2,29.38,West,278,6.7,8.1,97,-99.99,,,0.00,0,rob ver 1A,2013-01-26 11:34:00,
2013-01-26 04:39:00,57.0,56.2,29.38,West,274,4.9,6.0,97,-99.99,,,0.00,0,rob ver 1A,2013-01-26 11:39:00,
2013-01-26 04:44:00,57.0,56.2,29.38,West,280,6.2,7.3,97,-99.99,,,0.00,0,rob ver 1A,2013-01-26 11:44:00,
2013-01-26 04:49:00,56.9,56.2,29.38,West,279,5.5,6.2,97,-99.99,,,0.00,0,rob ver 1A,2013-01-26 11:49:00,
2013-01-26 04:54:00,57.0,56.3,29.38,West,271,5.2,5.8,97,-99.99,,,0.00,0,rob ver 1A,2013-01-26 11:54:00,
2013-01-26 05:00:00,56.9,56.1,29.38,West,271,6.1,6.8,97,-99.99,,,0.00,0,rob ver 1A,2013-01-26 12:00:00,
2013-01-26 05:05:00,56.9,56.1,29.38,West,276,4.9,5.7,97,-99.99,,,0.00,0,rob ver 1A,2013-01-26 12:05:00,
2013-01-26 05:10:00,56.9,56.1,29.38,West,265,4.5,5.4,97,-99.99,,,0.00,0,rob ver 1A,2013-01-26 12:10:00,
2013-01-26 05:15:00,56.9,56.1,29.38,West,276,5.4,6.5,97,-99.99,,,0.00,0,rob ver 1A,2013-01-26 12:15:00,
2013-01-26 05:20:00,56.9,56.1,29.38,West,279,4.5,5.6,97,-99.99,,,0.00,0,rob ver 1A,2013-01-26 12:20:00,
2013-01-26 05:25:00,56.9,56.1,29.38,WNW,298,5.0,5.6,96,-99.99,,,0.00,0,rob ver 1A,2013-01-26 12:25:00,
2013-01-26 05:30:00,56.9,56.2,29.38,NW,307,4.4,5.2,97,-99.99,,,0.00,0,rob ver 1A,2013-01-26 12:30:00,
2013-01-26 05:35:00,56.9,56.1,29.38,WNW,287,3.8,4.6,97,-99.99,,,0.00,0,rob ver 1A,2013-01-26 12:35:00,
2013-01-26 05:40:00,56.9,56.1,29.38,West,280,3.2,4.0,97,-99.99,,,0.00,0,rob ver 1A,2013-01-26 12:40:00,
2013-01-26 05:45:00,56.9,56.0,29.38,West,274,2.8,3.6,97,-99.99,,,0.00,0,rob ver 1A,2013-01-26 12:45:00,
2013-01-26 05:50:00,56.9,56.1,29.38,West,274,3.5,4.0,96,-99.99,,,0.00,0,rob ver 1A,2013-01-26 12:50:00,
2013-01-26 05:55:00,56.9,56.1,29.38,WSW,250,3.5,4.0,96,-99.99,,,0.00,0,rob ver 1A,2013-01-26 12:55:00,
2013-01-26 06:00:00,56.9,56.0,29.38,WSW,247,3.3,4.0,96,-99.99,,,0.00,0,rob ver 1A,2013-01-26 13:00:00,
2013-01-26 06:05:00,56.9,56.0,29.38,WSW,255,2.7,3.4,96,-99.99,,,0.00,0,rob ver 1A,2013-01-26 13:05:00,
2013-01-26 06:10:00,56.9,56.0,29.38,SSW,205,3.1,3.6,96,-99.99,,,0.00,0,rob ver 1A,2013-01-26 13:10:00,
2013-01-26 06:15:00,56.9,56.0,29.38,SW,228,1.0,1.7,96,-99.99,,,0.00,0,rob ver 1A,2013-01-26 13:15:00,
2013-01-26 06:20:00,56.9,56.0,29.38,NNE,21,1.6,2.2,96,-99.99,,,0.00,0,rob ver 1A,2013-01-26 13:20:00,
2013-01-26 06:25:00,56.9,56.0,29.38,NNE,17,1.6,2.6,96,-99.99,,,0.00,0,rob ver 1A,2013-01-26 13:25:00,
2013-01-26 06:30:00,56.9,56.0,29.38,WNW,285,1.0,1.3,96,-99.99,,,0.00,0,rob ver 1A,2013-01-26 13:30:00,
2013-01-26 06:35:00,56.9,55.9,29.38,WNW,301,1.8,2.2,96,-99.99,,,0.00,0,rob ver 1A,2013-01-26 13:35:00,
2013-01-26 06:40:00,56.9,56.0,29.38,WSW,258,0.9,1.1,96,-99.99,,,0.11,0,rob ver 1B,2013-01-26 13:40:00,
2013-01-26 06:45:00,56.9,56.0,29.38,SW,229,1.2,1.6,96,-99.99,,,0.00,0,rob ver 1A,2013-01-26 13:45:00,
2013-01-26 06:50:00,57.0,56.0,29.38,South,185,1.6,2.1,96,-99.99,,,0.01,0,rob ver 1A,2013-01-26 13:50:00,
2013-01-26 06:56:00,57.1,56.1,29.38,SSW,192,4.2,5.2,96,-99.99,,,0.00,0,rob ver 1A,2013-01-26 13:56:00,
2013-01-26 07:01:00,57.0,56.0,29.38,SW,220,2.5,3.1,96,-99.99,,,0.00,0,rob ver 1A,2013-01-26 14:01:00,
2013-01-26 07:06:00,56.9,55.9,29.38,WNW,299,2.4,2.9,96,-99.99,,,0.12,0,rob ver 1B,2013-01-26 14:06:00,
2013-01-26 07:11:00,56.9,55.9,29.38,WNW,291,3.5,3.8,96,-99.99,,,0.00,0,rob ver 1A,2013-01-26 14:11:00,
2013-01-26 07:16:00,57.0,56.0,29.38,West,269,2.0,2.3,96,-99.99,,,0.00,0,rob ver 1A,2013-01-26 14:16:00,
2013-01-26 07:21:00,57.0,56.0,29.38,WSW,238,1.4,1.5,96,-99.99,,,0.00,0,rob ver 1A,2013-01-26 14:21:00,
2013-01-26 07:26:00,57.0,56.0,29.38,SW,230,3.0,3.5,96,-99.99,,,0.00,0,rob ver 1A,2013-01-26 14:26:00,
2013-01-26 07:31:00,57.1,56.1,29.38,SW,218,3.3,3.7,96,-99.99,,,0.00,.164,rob ver 1A,2013-01-26 14:31:00,
2013-01-26 07:36:00,57.0,55.9,29.38,WSW,254,3.3,4.2,96,-99.99,,,0.00,.328,rob ver 1A,2013-01-26 14:36:00,
2013-01-26 07:41:00,56.9,55.9,29.38,SW,233,2.7,3.2,96,-99.99,,,0.01,.328,rob ver 1A,2013-01-26 14:41:00,
2013-01-26 07:46:00,57.0,55.9,29.38,WNW,286,2.6,2.9,96,-99.99,,,0.00,.493,rob ver 1A,2013-01-26 14:46:00,
2013-01-26 07:51:00,57.0,56.0,29.38,West,266,3.6,4.1,96,-99.99,,,0.00,.985,rob ver 1A,2013-01-26 14:51:00,
2013-01-26 07:56:00,57.0,56.0,29.38,WSW,245,2.4,2.7,96,-99.99,,,0.00,1.642,rob ver 1A,2013-01-26 14:56:00,
2013-01-26 08:01:00,57.0,56.0,29.38,SW,228,3.6,4.1,96,-99.99,,,0.00,2.299,rob ver 1A,2013-01-26 15:01:00,
2013-01-26 08:06:00,57.0,56.0,29.41,SW,223,3.3,4.0,96,-99.99,,,0.13,2.956,rob ver 1B,2013-01-26 15:06:00,
2013-01-26 08:11:00,57.1,56.1,29.38,South,183,3.6,4.5,96,-99.99,,,0.00,3.284,rob ver 1A,2013-01-26 15:11:00,
2013-01-26 08:16:00,57.1,56.1,29.38,South,185,3.2,4.2,96,-99.99,,,0.00,4.598,rob ver 1A,2013-01-26 15:16:00,
2013-01-26 08:21:00,57.0,56.0,29.38,South,182,2.6,3.0,96,-99.99,,,0.00,6.404,rob ver 1A,2013-01-26 15:21:00,
2013-01-26 08:26:00,57.0,56.0,29.38,South,190,1.6,2.3,96,-99.99,,,0.00,6.568,rob ver 1A,2013-01-26 15:26:00,
2013-01-26 08:31:00,56.9,55.9,29.38,South,171,1.1,1.5,96,-99.99,,,0.00,8.54,rob ver 1A,2013-01-26 15:31:00,
2013-01-26 08:36:00,57.0,56.0,29.38,SE,137,2.4,2.7,96,-99.99,,,0.00,11.17,rob ver 1A,2013-01-26 15:36:00,
2013-01-26 08:41:00,57.0,56.1,29.38,SE,125,1.9,2.6,96,-99.99,,,0.00,13.79,rob ver 1A,2013-01-26 15:41:00,
2013-01-26 08:46:00,57.1,56.1,29.41,SE,144,5.1,6.2,96,-99.99,,,0.00,17.08,rob ver 1A,2013-01-26 15:46:00,
2013-01-26 08:51:00,57.1,56.2,29.41,SSE,153,5.6,6.4,96,-99.99,,,0.00,24.3,rob ver 1A,2013-01-26 15:51:00,
2013-01-26 08:56:00,57.2,56.3,29.41,SSE,149,4.6,5.5,96,-99.99,,,0.15,25.78,rob ver 1B,2013-01-26 15:56:00,
2013-01-26 09:01:00,57.2,56.3,29.41,South,169,4.3,4.9,96,-99.99,,,0.00,31.53,rob ver 1A,2013-01-26 16:01:00,
2013-01-26 09:07:00,57.2,56.3,29.41,South,183,3.4,4.1,96,-99.99,,,0.00,34.15,rob ver 1A,2013-01-26 16:07:00,
2013-01-26 09:12:00,57.2,56.2,29.41,South,187,4.0,5.0,96,-99.99,,,0.00,29.56,rob ver 1A,2013-01-26 16:12:00,
2013-01-26 09:17:00,57.1,56.2,29.41,South,191,3.6,4.3,96,-99.99,,,0.00,28.9,rob ver 1A,2013-01-26 16:17:00,
2013-01-26 09:22:00,57.1,56.2,29.41,SSW,193,4.2,4.8,96,-99.99,,,0.00,24.96,rob ver 1A,2013-01-26 16:22:00,
2013-01-26 09:27:00,57.0,56.1,29.41,SSW,210,5.2,5.7,96,-99.99,,,0.00,36.29,rob ver 1A,2013-01-26 16:27:00,
2013-01-26 09:32:00,57.0,56.2,29.41,SSW,209,4.0,4.8,96,-99.99,,,0.00,55.5,rob ver 1A,2013-01-26 16:32:00,
2013-01-26 09:37:00,56.9,56.0,29.41,SSW,211,3.8,4.5,96,-99.99,,,0.00,40.72,rob ver 1A,2013-01-26 16:37:00,
2013-01-26 09:42:00,56.9,56.0,29.41,SSW,203,3.3,3.8,96,-99.99,,,0.00,51.23,rob ver 1A,2013-01-26 16:42:00,
2013-01-26 09:47:00,57.1,56.2,29.41,SSW,203,3.6,4.2,96,-99.99,,,0.00,50.74,rob ver 1A,2013-01-26 16:47:00,
2013-01-26 09:52:00,57.2,56.3,29.41,SSW,194,4.1,5.1,96,-99.99,,,0.00,52.87,rob ver 1A,2013-01-26 16:52:00,
2013-01-26 09:57:00,57.2,56.2,29.41,SSW,199,4.1,4.7,96,-99.99,,,0.00,53.2,rob ver 1A,2013-01-26 16:57:00,
2013-01-26 10:02:00,57.2,56.2,29.41,SSW,212,5.2,6.0,96,-99.99,,,0.00,48.6,rob ver 1A,2013-01-26 17:02:00,
2013-01-26 10:07:00,57.2,56.2,29.41,SSW,209,4.8,5.7,96,-99.99,,,0.00,50.74,rob ver 1A,2013-01-26 17:07:00,
2013-01-26 10:12:00,57.2,56.3,29.41,SSW,202,5.3,6.7,96,-99.99,,,0.00,53.85,rob ver 1A,2013-01-26 17:12:00,
2013-01-26 10:17:00,57.2,56.2,29.41,SSW,193,6.7,7.9,96,-99.99,,,0.00,61.08,rob ver 1A,2013-01-26 17:17:00,
2013-01-26 10:22:00,57.0,56.0,29.44,SW,216,6.0,7.2,96,-99.99,,,0.01,51.23,rob ver 1A,2013-01-26 17:22:00,
2013-01-26 10:27:00,57.1,56.1,29.44,SSW,210,6.9,7.7,96,-99.99,,,0.00,58.62,rob ver 1A,2013-01-26 17:27:00,
2013-01-26 10:32:00,57.1,56.1,29.44,SSW,212,6.4,6.9,96,-99.99,,,0.00,57.3,rob ver 1A,2013-01-26 17:32:00,
2013-01-26 10:37:00,57.3,56.4,29.44,SSW,209,4.9,6.1,96,-99.99,,,0.00,55.5,rob ver 1A,2013-01-26 17:37:00,
2013-01-26 10:42:00,57.2,56.3,29.44,SW,215,4.8,5.5,96,-99.99,,,0.00,59.77,rob ver 1A,2013-01-26 17:42:00,
2013-01-26 10:47:00,57.4,56.4,29.44,South,189,9.5,11.0,96,-99.99,,,0.19,57.79,rob ver 1B,2013-01-26 17:47:00,
2013-01-26 10:52:00,57.6,56.7,29.44,South,176,10.4,12.4,96,-99.99,,,0.00,72.2,rob ver 1A,2013-01-26 17:52:00,
2013-01-26 10:57:00,57.4,56.5,29.44,South,178,9.6,11.5,96,-99.99,,,0.01,90,rob ver 1A,2013-01-26 17:57:00,
2013-01-26 11:02:00,57.5,56.6,29.44,South,184,9.2,10.7,96,-99.99,,,0.00,39.41,rob ver 1A,2013-01-26 18:02:00,
2013-01-26 11:07:00,57.3,56.4,29.44,South,191,9.8,12.2,96,-99.99,,,0.00,36.62,rob ver 1A,2013-01-26 18:07:00,
2013-01-26 11:12:00,57.3,56.4,29.44,South,181,10.2,11.8,96,-99.99,,,0.20,47.95,rob ver 1B,2013-01-26 18:12:00,
2013-01-26 11:18:00,57.2,56.3,29.44,South,186,11.0,13.4,96,-99.99,,,0.00,66.33,rob ver 1A,2013-01-26 18:18:00,
2013-01-26 11:23:00,57.4,56.6,29.44,South,179,10.1,12.4,96,-99.99,,,0.00,49.26,rob ver 1A,2013-01-26 18:23:00,
2013-01-26 11:28:00,57.3,56.4,29.44,South,180,9.4,11.7,96,-99.99,,,0.00,39.74,rob ver 1A,2013-01-26 18:28:00,
2013-01-26 11:33:00,57.4,56.6,29.44,SSW,194,8.4,10.4,97,-99.99,,,0.00,78.2,rob ver 1A,2013-01-26 18:33:00,
2013-01-26 11:38:00,57.1,56.3,29.44,SSW,194,10.1,12.7,97,-99.99,,,0.00,80.1,rob ver 1A,2013-01-26 18:38:00,
2013-01-26 11:43:00,57.2,56.4,29.44,South,191,8.8,10.4,97,-99.99,,,0.00,99.8,rob ver 1A,2013-01-26 18:43:00,
2013-01-26 11:48:00,57.3,56.5,29.44,South,184,8.7,11.7,97,-99.99,,,0.00,107.1,rob ver 1A,2013-01-26 18:48:00,
2013-01-26 11:53:00,57.3,56.5,29.44,South,176,9.0,11.1,96,-99.99,,,0.00,65.84,rob ver 1A,2013-01-26 18:53:00,
2013-01-26 11:58:00,57.4,56.5,29.44,South,182,8.2,10.0,96,-99.99,,,0.00,84.7,rob ver 1A,2013-01-26 18:58:00,
2013-01-26 12:03:00,57.3,56.3,29.44,SSW,195,10.0,11.6,96,-99.99,,,0.00,53.2,rob ver 1A,2013-01-26 19:03:00,
2013-01-26 12:08:00,57.3,56.4,29.44,South,183,8.0,9.9,96,-99.99,,,0.00,61.74,rob ver 1A,2013-01-26 19:08:00,
2013-01-26 12:13:00,57.4,56.4,29.41,South,183,8.8,11.1,96,-99.99,,,0.00,90.6,rob ver 1A,2013-01-26 19:13:00,
2013-01-26 12:18:00,57.7,56.6,29.41,South,177,8.4,10.0,96,-99.99,,,0.00,155.7,rob ver 1A,2013-01-26 19:18:00,
2013-01-26 12:23:00,57.9,56.7,29.41,South,177,8.4,10.8,95,-99.99,,,0.00,146.6,rob ver 1A,2013-01-26 19:23:00,
2013-01-26 12:28:00,58.0,56.7,29.41,South,181,8.1,9.0,95,-99.99,,,0.00,93.9,rob ver 1A,2013-01-26 19:28:00,
2013-01-26 12:33:00,57.9,56.4,29.41,South,184,8.8,10.0,94,-99.99,,,0.00,72.4,rob ver 1A,2013-01-26 19:33:00,
2013-01-26 12:38:00,58.2,56.8,29.41,South,181,7.0,8.1,95,-99.99,,,0.20,90.6,rob ver 1B,2013-01-26 19:38:00,
2013-01-26 12:43:00,58.5,57.1,29.41,South,190,6.3,8.5,94,-99.99,,,0.00,118.7,rob ver 1A,2013-01-26 19:43:00,
2013-01-26 12:48:00,58.6,57.0,29.41,South,191,6.6,8.3,94,-99.99,,,0.00,79.5,rob ver 1A,2013-01-26 19:48:00,
2013-01-26 12:53:00,58.6,56.8,29.41,South,188,7.2,8.7,94,-99.99,,,0.00,101.8,rob ver 1A,2013-01-26 19:53:00,
2013-01-26 12:58:00,58.6,56.8,29.41,South,185,7.8,9.8,93,-99.99,,,0.00,90.3,rob ver 1A,2013-01-26 19:58:00,
2013-01-26 13:03:00,58.6,56.4,29.41,SSW,199,8.3,10.7,91,-99.99,,,0.00,74.2,rob ver 1A,2013-01-26 20:03:00,
2013-01-26 13:08:00,58.7,56.7,29.41,South,189,6.2,7.7,92,-99.99,,,0.00,49.26,rob ver 1A,2013-01-26 20:08:00,
2013-01-26 13:14:00,58.6,56.5,29.41,South,181,9.0,11.0,92,-99.99,,,0.00,65.67,rob ver 1A,2013-01-26 20:14:00,
2013-01-26 13:19:00,58.7,56.5,29.41,South,171,7.9,8.9,92,-99.99,,,0.00,56.81,rob ver 1A,2013-01-26 20:19:00,
2013-01-26 13:24:00,58.7,56.4,29.41,South,176,7.6,8.9,92,-99.99,,,0.00,47.94,rob ver 1A,2013-01-26 20:24:00,
2013-01-26 13:29:00,58.7,56.4,29.41,South,179,9.8,11.2,91,-99.99,,,0.20,86.5,rob ver 1B,2013-01-26 20:29:00,
2013-01-26 13:34:00,58.6,56.1,29.41,SSE,167,9.0,10.4,91,-99.99,,,0.00,101.5,rob ver 1A,2013-01-26 20:34:00,
2013-01-26 13:39:00,58.9,56.5,29.41,SSE,161,9.0,11.2,91,-99.99,,,0.00,93.9,rob ver 1A,2013-01-26 20:39:00,
2013-01-26 13:44:00,58.9,56.4,29.41,SSE,168,8.7,10.0,91,-99.99,,,0.00,112,rob ver 1A,2013-01-26 20:44:00,
2013-01-26 13:49:00,59.0,56.4,29.41,South,186,8.3,10.6,91,-99.99,,,0.00,79.5,rob ver 1A,2013-01-26 20:49:00,
2013-01-26 13:54:00,58.9,56.3,29.41,South,170,7.1,8.5,90,-99.99,,,0.00,66.33,rob ver 1A,2013-01-26 20:54:00,
2013-01-26 13:59:00,59.0,56.4,29.38,South,186,8.2,9.7,90,-99.99,,,0.00,100.5,rob ver 1A,2013-01-26 20:59:00,
2013-01-26 14:04:00,59.1,56.3,29.38,SSW,196,8.9,10.4,90,-99.99,,,0.00,137.3,rob ver 1A,2013-01-26 21:04:00,
2013-01-26 14:09:00,59.3,56.4,29.38,South,187,7.1,8.9,90,-99.99,,,0.00,129.2,rob ver 1A,2013-01-26 21:09:00,
2013-01-26 14:14:00,59.5,56.3,29.38,South,184,6.9,8.3,89,-99.99,,,0.00,97.2,rob ver 1A,2013-01-26 21:14:00,
2013-01-26 14:19:00,59.5,56.4,29.38,South,184,5.6,7.3,89,-99.99,,,0.00,103.9,rob ver 1A,2013-01-26 21:19:00,
2013-01-26 14:24:00,59.5,56.3,29.38,South,191,5.7,7.1,89,-99.99,,,0.00,98.2,rob ver 1A,2013-01-26 21:24:00,
2013-01-26 14:29:00,59.6,56.7,29.38,South,189,5.9,7.2,89,-99.99,,,0.00,92.4,rob ver 1A,2013-01-26 21:29:00,
2013-01-26 14:34:00,59.6,56.6,29.38,SSW,196,6.4,9.0,88,-99.99,,,0.00,109,rob ver 1A,2013-01-26 21:34:00,
2013-01-26 14:39:00,59.8,56.5,29.38,SSW,197,6.0,7.2,88,-99.99,,,0.00,120.2,rob ver 1A,2013-01-26 21:39:00,
2013-01-26 14:44:00,59.8,56.5,29.38,SSW,206,5.5,6.3,88,-99.99,,,0.00,83.4,rob ver 1A,2013-01-26 21:44:00,
2013-01-26 14:49:00,59.8,56.3,29.38,South,188,5.5,6.4,87,-99.99,,,0.00,155.6,rob ver 1A,2013-01-26 21:49:00,
2013-01-26 14:54:00,60.2,56.8,29.38,SSW,198,4.3,5.2,88,-99.99,,,0.00,239,rob ver 1A,2013-01-26 21:54:00,
2013-01-26 14:59:00,60.3,56.5,29.38,SSW,213,4.5,5.6,87,-99.99,,,0.00,245,rob ver 1A,2013-01-26 21:59:00,
2013-01-26 15:04:00,60.4,56.7,29.38,SSW,192,5.0,6.2,88,-99.99,,,0.00,159.6,rob ver 1A,2013-01-26 22:04:00,
2013-01-26 15:09:00,60.5,57.0,29.38,SSW,197,5.5,7.4,88,-99.99,,,0.00,128.1,rob ver 1A,2013-01-26 22:09:00,
2013-01-26 15:14:00,60.4,57.0,29.38,South,186,4.3,5.0,88,-99.99,,,0.00,137.3,rob ver 1A,2013-01-26 22:14:00,
2013-01-26 15:20:00,60.4,56.8,29.38,SSW,193,4.6,6.0,87,-99.99,,,0.00,129.7,rob ver 1A,2013-01-26 22:20:00,
2013-01-26 15:25:00,60.4,56.6,29.38,SSW,197,4.3,5.1,87,-99.99,,,0.00,124.1,rob ver 1A,2013-01-26 22:25:00,
2013-01-26 15:30:00,60.4,56.7,29.38,South,182,5.4,6.4,86,-99.99,,,0.00,81.3,rob ver 1A,2013-01-26 22:30:00,
2013-01-26 15:35:00,60.4,56.7,29.38,SSW,194,6.1,6.6,87,-99.99,,,0.00,47.93,rob ver 1A,2013-01-26 22:35:00,
2013-01-26 15:40:00,60.4,57.0,29.41,SSW,202,6.2,7.3,88,-99.99,,,0.00,51.22,rob ver 1A,2013-01-26 22:40:00,
2013-01-26 15:45:00,60.5,57.0,29.38,South,190,4.5,5.8,88,-99.99,,,0.00,66.32,rob ver 1A,2013-01-26 22:45:00,
2013-01-26 15:50:00,60.5,56.6,29.38,SSW,201,4.1,5.3,87,-99.99,,,0.00,56.47,rob ver 1A,2013-01-26 22:50:00,
2013-01-26 15:55:00,60.6,56.5,29.41,SSW,193,4.5,5.5,86,-99.99,,,0.00,56.31,rob ver 1A,2013-01-26 22:55:00,
2013-01-26 16:00:00,60.7,56.7,29.41,South,184,3.6,4.3,86,-99.99,,,0.00,74.2,rob ver 1A,2013-01-26 23:00:00,
2013-01-26 16:05:00,60.6,56.4,29.41,South,190,3.3,4.0,85,-99.99,,,0.00,79.6,rob ver 1A,2013-01-26 23:05:00,
2013-01-26 16:10:00,60.7,56.5,29.41,SSE,157,2.0,3.1,86,-99.99,,,0.00,87.3,rob ver 1A,2013-01-26 23:10:00,
2013-01-26 16:15:00,60.9,56.9,29.41,South,172,2.8,3.4,86,-99.99,,,0.00,66.32,rob ver 1A,2013-01-26 23:15:00,
2013-01-26 16:20:00,60.8,56.7,29.41,South,182,2.1,2.5,86,-99.99,,,0.00,65,rob ver 1A,2013-01-26 23:20:00,
2013-01-26 16:25:00,60.9,57.0,29.41,SSW,192,2.4,3.3,86,-99.99,,,0.00,57.78,rob ver 1A,2013-01-26 23:25:00,
2013-01-26 16:30:00,60.8,56.7,29.41,SSW,197,5.1,5.9,86,-99.99,,,0.00,58.27,rob ver 1A,2013-01-26 23:30:00,
2013-01-26 16:35:00,61.0,57.2,29.41,South,185,3.3,4.0,86,-99.99,,,0.00,57.45,rob ver 1A,2013-01-26 23:35:00,
2013-01-26 16:40:00,61.0,56.9,29.41,SSW,199,4.4,5.0,86,-99.99,,,0.00,48.59,rob ver 1A,2013-01-26 23:40:00,
2013-01-26 16:45:00,61.1,57.0,29.41,SSW,192,4.0,5.3,86,-99.99,,,0.00,35.46,rob ver 1A,2013-01-26 23:45:00,
2013-01-26 16:50:00,61.1,57.0,29.41,SSW,199,5.0,5.9,85,-99.99,,,0.00,37.43,rob ver 1A,2013-01-26 23:50:00,
2013-01-26 16:55:00,61.0,56.9,29.41,SSW,205,3.2,4.2,85,-99.99,,,0.00,42.68,rob ver 1A,2013-01-26 23:55:00,
2013-01-26 17:00:00,61.0,57.0,29.41,SW,217,3.3,4.0,86,-99.99,,,0.00,38.74,rob ver 1A,2013-01-27 00:00:00,
2013-01-26 17:05:00,61.0,57.0,29.41,SSW,206,3.0,3.3,86,-99.99,,,0.00,33.49,rob ver 1A,2013-01-27 00:05:00,
2013-01-26 17:10:00,61.1,57.1,29.41,SSW,193,2.2,2.9,86,-99.99,,,0.00,30.2,rob ver 1A,2013-01-27 00:10:00,
2013-01-26 17:15:00,61.0,56.8,29.41,SE,127,1.8,2.3,86,-99.99,,,0.00,30.2,rob ver 1A,2013-01-27 00:15:00,
2013-01-26 17:20:00,61.0,57.0,29.41,ESE,119,2.2,2.9,86,-99.99,,,0.00,30.86,rob ver 1A,2013-01-27 00:20:00,
2013-01-26 17:25:00,61.0,57.1,29.41,East,96,2.6,3.1,86,-99.99,,,0.00,28.89,rob ver 1A,2013-01-27 00:25:00,
2013-01-26 17:30:00,61.0,57.1,29.41,NE,52,1.6,2.1,86,-99.99,,,0.20,26.26,rob ver 1B,2013-01-27 00:30:00,
2013-01-26 17:35:00,61.1,57.1,29.41,NE,42,1.7,2.3,87,-99.99,,,0.00,24.29,rob ver 1A,2013-01-27 00:35:00,
2013-01-26 17:40:00,61.1,57.0,29.41,NE,35,1.8,2.1,86,-99.99,,,0.00,21.01,rob ver 1A,2013-01-27 00:40:00,
2013-01-26 17:46:00,61.2,57.3,29.41,NNE,27,2.7,3.1,87,-99.99,,,0.00,41.36,rob ver 1A,2013-01-27 00:46:00,
2013-01-26 17:51:00,61.2,56.9,29.41,NE,37,2.9,3.4,85,-99.99,,,0.00,24.95,rob ver 1A,2013-01-27 00:51:00,
2013-01-26 17:56:00,61.1,57.0,29.41,ENE,60,2.8,3.3,86,-99.99,,,0.20,8.54,rob ver 1B,2013-01-27 00:56:00,
2013-01-26 18:01:00,61.0,57.2,29.41,ENE,66,3.2,4.1,87,-99.99,,,0.00,5.91,rob ver 1A,2013-01-27 01:01:00,
2013-01-26 18:06:00,60.8,57.3,29.41,NE,55,2.9,4.2,88,-99.99,,,0.00,3.283,rob ver 1A,2013-01-27 01:06:00,
2013-01-26 18:11:00,60.7,57.3,29.41,ENE,64,3.2,4.0,88,-99.99,,,0.00,2.298,rob ver 1A,2013-01-27 01:11:00,
2013-01-26 18:16:00,60.4,57.2,29.41,ENE,67,2.7,3.7,89,-99.99,,,0.00,.985,rob ver 1A,2013-01-27 01:16:00,
2013-01-26 18:21:00,60.2,57.1,29.41,ENE,72,3.0,4.1,89,-99.99,,,0.00,.328,rob ver 1A,2013-01-27 01:21:00,
2013-01-26 18:26:00,60.1,57.0,29.41,ENE,70,3.2,4.3,89,-99.99,,,0.00,.328,rob ver 1A,2013-01-27 01:26:00,
2013-01-26 18:31:00,60.1,57.0,29.41,East,91,3.1,4.0,89,-99.99,,,0.00,.164,rob ver 1A,2013-01-27 01:31:00,
2013-01-26 18:36:00,59.9,57.0,29.41,ESE,106,3.0,3.4,89,-99.99,,,0.00,0,rob ver 1A,2013-01-27 01:36:00,
2013-01-26 18:41:00,59.8,56.9,29.41,ESE,118,2.7,3.2,90,-99.99,,,0.00,0,rob ver 1A,2013-01-27 01:41:00,
2013-01-26 18:46:00,59.7,56.9,29.41,ESE,120,2.1,2.3,90,-99.99,,,0.00,0,rob ver 1A,2013-01-27 01:46:00,
2013-01-26 18:51:00,59.6,56.9,29.41,ESE,108,2.0,2.2,90,-99.99,,,0.00,0,rob ver 1A,2013-01-27 01:51:00,
2013-01-26 18:56:00,59.4,56.9,29.41,ENE,77,2.8,3.1,91,-99.99,,,0.00,0,rob ver 1A,2013-01-27 01:56:00,
2013-01-26 19:01:00,59.2,56.8,29.41,NE,48,3.1,3.5,91,-99.99,,,0.00,0,rob ver 1A,2013-01-27 02:01:00,
2013-01-26 19:06:00,58.9,56.7,29.41,NE,49,2.4,2.9,92,-99.99,,,0.00,0,rob ver 1A,2013-01-27 02:06:00,
2013-01-26 19:11:00,58.8,56.6,29.41,ENE,58,2.1,2.6,92,-99.99,,,0.00,0,rob ver 1A,2013-01-27 02:11:00,
2013-01-26 19:16:00,58.8,56.5,29.41,NE,51,2.6,3.4,92,-99.99,,,0.00,0,rob ver 1A,2013-01-27 02:16:00,
2013-01-26 19:21:00,58.7,56.4,29.44,ENE,65,2.0,2.3,91,-99.99,,,0.00,0,rob ver 1A,2013-01-27 02:21:00,
2013-01-26 19:26:00,58.7,56.4,29.44,ENE,76,2.3,2.6,92,-99.99,,,0.00,0,rob ver 1A,2013-01-27 02:26:00,
2013-01-26 19:31:00,58.5,56.1,29.44,ENE,57,2.6,3.3,92,-99.99,,,0.00,0,rob ver 1A,2013-01-27 02:31:00,
2013-01-26 19:36:00,58.3,56.1,29.44,NE,48,2.9,3.7,92,-99.99,,,0.00,0,rob ver 1A,2013-01-27 02:36:00,
2013-01-26 19:41:00,58.1,56.1,29.44,NE,53,2.9,3.3,92,-99.99,,,0.00,0,rob ver 1A,2013-01-27 02:41:00,
2013-01-26 19:46:00,58.0,56.0,29.44,NE,50,3.1,3.8,93,-99.99,,,0.00,0,rob ver 1A,2013-01-27 02:46:00,
2013-01-26 19:51:00,57.8,56.0,29.44,NE,50,2.6,3.2,93,-99.99,,,0.20,0,rob ver 1B,2013-01-27 02:51:00,
2013-01-26 19:56:00,57.8,56.0,29.44,NE,48,2.3,2.9,93,-99.99,,,0.00,0,rob ver 1A,2013-01-27 02:56:00,
2013-01-26 20:01:00,57.7,56.0,29.44,NE,39,2.8,3.2,94,-99.99,,,0.00,0,rob ver 1A,2013-01-27 03:01:00,
2013-01-26 20:06:00,57.7,56.0,29.44,NE,39,3.0,3.2,93,-99.99,,,0.00,0,rob ver 1A,2013-01-27 03:06:00,
2013-01-26 20:11:00,57.6,55.9,29.44,NNE,32,3.2,3.6,93,-99.99,,,0.00,0,rob ver 1A,2013-01-27 03:11:00,
2013-01-26 20:16:00,57.5,55.9,29.44,NNE,20,5.2,5.5,94,-99.99,,,0.20,0,rob ver 1B,2013-01-27 03:16:00,
2013-01-26 20:22:00,57.7,56.0,29.44,NNE,21,5.1,5.9,94,-99.99,,,0.00,0,rob ver 1A,2013-01-27 03:22:00,
2013-01-26 20:27:00,57.8,56.0,29.44,NNE,30,4.1,4.9,93,-99.99,,,0.00,0,rob ver 1A,2013-01-27 03:27:00,
2013-01-26 20:32:00,57.9,56.0,29.44,NNE,32,5.1,5.6,93,-99.99,,,0.00,0,rob ver 1A,2013-01-27 03:32:00,
2013-01-26 20:37:00,58.0,56.0,29.44,NNE,19,5.7,6.4,92,-99.99,,,0.00,0,rob ver 1A,2013-01-27 03:37:00,
2013-01-26 20:42:00,57.9,55.9,29.44,NNE,19,4.7,5.3,93,-99.99,,,0.00,0,rob ver 1A,2013-01-27 03:42:00,
2013-01-26 20:47:00,57.8,55.9,29.44,NNE,21,5.5,6.1,93,-99.99,,,0.00,0,rob ver 1A,2013-01-27 03:47:00,
2013-01-26 20:52:00,57.6,55.9,29.44,NNE,21,5.3,6.0,93,-99.99,,,0.00,0,rob ver 1A,2013-01-27 03:52:00,
2013-01-26 20:57:00,57.6,55.9,29.44,NNE,19,4.7,5.8,93,-99.99,,,0.00,0,rob ver 1A,2013-01-27 03:57:00,
2013-01-26 21:02:00,57.8,55.9,29.44,NNE,21,4.1,4.9,93,-99.99,,,0.00,0,rob ver 1A,2013-01-27 04:02:00,
2013-01-26 21:07:00,57.8,56.0,29.44,NNE,14,4.9,5.6,93,-99.99,,,0.00,0,rob ver 1A,2013-01-27 04:07:00,
2013-01-26 21:12:00,57.9,55.9,29.44,NNE,18,3.9,4.8,93,-99.99,,,0.00,0,rob ver 1A,2013-01-27 04:12:00,
2013-01-26 21:17:00,57.9,55.9,29.44,NE,39,3.0,3.9,93,-99.99,,,0.00,0,rob ver 1A,2013-01-27 04:17:00,
2013-01-26 21:22:00,58.0,55.9,29.44,NE,43,4.1,4.9,92,-99.99,,,0.00,0,rob ver 1A,2013-01-27 04:22:00,
2013-01-26 21:27:00,58.1,55.8,29.44,NE,42,3.0,4.3,92,-99.99,,,0.00,0,rob ver 1A,2013-01-27 04:27:00,
2013-01-26 21:32:00,58.2,55.9,29.44,NE,46,3.8,4.7,92,-99.99,,,0.00,0,rob ver 1A,2013-01-27 04:32:00,
2013-01-26 21:37:00,58.3,55.9,29.44,NE,53,3.5,4.6,91,-99.99,,,0.00,0,rob ver 1A,2013-01-27 04:37:00,
2013-01-26 21:42:00,58.3,56.0,29.44,NE,52,2.7,3.4,92,-99.99,,,0.20,0,rob ver 1B,2013-01-27 04:42:00,
2013-01-26 21:47:00,58.3,56.0,29.44,NE,47,3.2,3.8,92,-99.99,,,0.00,0,rob ver 1A,2013-01-27 04:47:00,
2013-01-26 21:52:00,58.3,56.0,29.44,NE,48,3.3,4.4,91,-99.99,,,0.00,0,rob ver 1A,2013-01-27 04:52:00,
2013-01-26 21:57:00,58.2,55.9,29.44,NE,50,3.0,4.1,91,-99.99,,,0.00,0,rob ver 1A,2013-01-27 04:57:00,
2013-01-26 22:00:00,58.2,55.9,29.44,NE,46,3.5,4.6,92,-99.99,,,0.00,0,rob ver 1A,2013-01-27 05:00:00,
2013-01-26 22:01:00,58.2,55.9,29.44,NE,51,2.9,3.7,91,-99.99,,,0.00,0,rob ver 1A,2013-01-27 05:01:00,
2013-01-26 22:03:00,58.2,55.9,29.44,NE,52,3.1,3.8,91,-99.99,,,0.20,0,rob ver 1B,2013-01-27 05:03:00,
2013-01-26 22:08:00,58.1,55.8,29.44,NE,45,3.1,3.6,92,-99.99,,,0.00,0,rob ver 1A,2013-01-27 05:08:00,
2013-01-26 22:13:00,57.9,55.7,29.44,ENE,58,3.0,3.5,92,-99.99,,,0.00,0,rob ver 1A,2013-01-27 05:13:00,
2013-01-26 22:18:00,57.8,55.6,29.44,ENE,72,2.8,3.2,92,-99.99,,,0.00,0,rob ver 1A,2013-01-27 05:18:00,
2013-01-26 22:24:00,57.7,55.5,29.44,ENE,66,2.7,4.0,92,-99.99,,,0.00,0,rob ver 1A,2013-01-27 05:24:00,
2013-01-26 22:29:00,57.6,55.6,29.44,ENE,57,3.4,4.3,93,-99.99,,,0.00,0,rob ver 1A,2013-01-27 05:29:00,
2013-01-26 22:34:00,57.4,55.4,29.44,NE,52,3.0,3.8,93,-99.99,,,0.00,0,rob ver 1A,2013-01-27 05:34:00,
2013-01-26 22:39:00,57.3,55.4,29.44,East,81,3.1,3.9,93,-99.99,,,0.00,0,rob ver 1A,2013-01-27 05:39:00,
2013-01-26 22:44:00,57.1,55.3,29.44,East,88,2.3,2.8,93,-99.99,,,0.00,0,rob ver 1A,2013-01-27 05:44:00,
2013-01-26 22:49:00,56.8,55.0,29.44,SSE,149,2.2,2.7,93,-99.99,,,0.00,0,rob ver 1A,2013-01-27 05:49:00,
2013-01-26 22:54:00,56.7,55.1,29.44,SE,140,1.8,2.3,94,-99.99,,,0.00,0,rob ver 1A,2013-01-27 05:54:00,
2013-01-26 22:59:00,56.9,55.4,29.44,ESE,116,1.8,2.3,94,-99.99,,,0.00,0,rob ver 1A,2013-01-27 05:59:00,
2013-01-26 23:04:00,56.9,55.4,29.44,SSE,153,1.4,1.6,94,-99.99,,,0.00,0,rob ver 1A,2013-01-27 06:04:00,
2013-01-26 23:09:00,56.9,55.5,29.44,East,81,1.4,1.7,94,-99.99,,,0.00,0,rob ver 1A,2013-01-27 06:09:00,
2013-01-26 23:14:00,57.2,55.8,29.44,East,94,1.1,1.3,94,-99.99,,,0.20,0,rob ver 1B,2013-01-27 06:14:00,
2013-01-26 23:19:00,57.5,56.0,29.44,NW,319,0.3,0.4,94,-99.99,,,0.00,0,rob ver 1A,2013-01-27 06:19:00,
2013-01-26 23:24:00,57.0,55.3,29.44,NW,324,2.0,2.6,94,-99.99,,,0.00,0,rob ver 1A,2013-01-27 06:24:00,
2013-01-26 23:29:00,56.6,55.0,29.44,NW,317,3.1,3.3,94,-99.99,,,0.00,0,rob ver 1A,2013-01-27 06:29:00,
2013-01-26 23:34:00,56.6,55.2,29.44,NW,321,3.2,3.5,94,-99.99,,,0.00,0,rob ver 1A,2013-01-27 06:34:00,
2013-01-26 23:39:00,56.6,55.1,29.44,NW,325,2.5,2.8,94,-99.99,,,0.00,0,rob ver 1A,2013-01-27 06:39:00,
2013-01-26 23:44:00,56.5,55.0,29.44,NNW,332,2.7,3.0,95,-99.99,,,0.00,0,rob ver 1A,2013-01-27 06:44:00,
2013-01-26 23:49:00,56.6,55.2,29.44,North,350,3.4,4.0,94,-99.99,,,0.00,0,rob ver 1A,2013-01-27 06:49:00,
2013-01-26 23:54:00,56.6,55.1,29.44,North,1,2.6,2.9,94,-99.99,,,0.00,0,rob ver 1A,2013-01-27 06:54:00,
2013-01-26 23:59:00,56.6,55.1,29.44,North,0,3.0,3.2,94,-99.99,,,0.00,0,rob ver 1A,2013-01-27 06:59:00,